Terug naar catalogus

STARLINK-37379

ActiefCommunicatieVLEO
NORAD 69522·PAYLOAD·🇺🇸 United States

Gelanceerd Jun 12, 2026 vanaf Cape Canaveral Space Force Station

Loading…

Volgende Passages (komende 24 uur)

TLE

VersSource: CelesTrak SupGP

Epoch: Sep 15, 2026, 04:00 UTC

1 69522C 26133Q   26258.16715278 -.00049222  00000+0 -14541-2 0  2584
2 69522  53.1565 254.5169 0001265  90.7257  34.0085 15.34418530    12

Volg STARLINK-37379 in realtime met AllMySat

Download on the App Store